GFSGL_850_dewp_021.txt.gz
Dewpoint
15 15 15 14 12 14 13 13 15 16 14 13 14 13 13 12 7 -1 2 1 6 7 7 8 6 5 4 9 9 9 9 9 9 9 8 8 7 7 8 7 6 6 7
15 15 14 15 12 11 12 11 12 15 15 14 13 13 13 12 11 1 -0 0 5 10 10 10 9 7 2 0 7 9 8 8 9 8 9 8 9 7 6 7 7 7 7
14 15 15 14 13 8 8 6 8 11 13 15 14 13 11 11 11 9 2 2 4 8 6 9 7 5 3 2 9 8 9 11 11 9 9 9 8 8 9 9 7 7 8
13 14 14 14 12 6 4 4 7 7 13 15 14 13 12 11 11 11 8 4 3 8 7 10 8 7 4 6 10 10 9 10 10 9 10 10 8 10 9 8 9 8 7
13 13 13 12 12 10 8 6 4 10 10 12 14 14 14 13 12 11 8 5 1 6 7 8 10 10 9 10 10 10 10 9 9 10 10 9 8 8 8 8 8 6 5
12 12 12 14 14 13 11 9 11 10 12 13 14 15 15 15 14 13 11 10 6 6 7 8 9 11 9 10 6 10 10 11 10 9 9 9 9 5 5 8 7 6 6
11 12 12 14 14 14 13 14 15 15 15 15 16 16 16 16 16 15 14 13 10 7 8 8 8 11 11 6 9 10 11 11 8 9 9 9 4 7 9 9 7 8 8
11 11 11 11 12 14 15 15 16 16 16 16 17 17 18 18 17 17 16 15 11 9 8 7 7 8 11 6 10 10 10 8 8 9 9 6 8 7 9 9 8 7 6
11 10 11 11 11 13 14 15 16 16 17 17 17 18 18 18 18 17 16 15 13 10 9 9 9 9 10 6 8 8 8 8 9 9 8 6 6 7 8 9 9 7 7
11 11 10 12 12 13 14 15 16 17 17 17 18 18 18 17 18 17 16 15 14 10 10 10 10 9 9 7 8 7 8 9 8 7 6 7 7 7 7 6 7 7 7
11 12 11 12 12 13 14 15 17 17 18 18 18 18 18 17 16 16 15 14 13 11 10 10 10 8 6 7 10 8 8 9 7 7 7 7 6 5 6 7 6 4 3
13 13 13 14 15 15 17 17 17 18 18 19 18 17 16 16 15 15 14 13 13 13 13 12 10 9 8 10 8 8 9 9 7 6 5 5 6 7 6 3 2 2 1
15 15 17 18 19 19 20 18 17 19 19 17 17 16 15 15 14 14 14 14 14 14 13 11 8 9 8 6 8 8 8 6 5 5 5 5 7 6 5 3 3 1 0
17 18 19 19 19 20 20 18 19 19 17 16 16 15 15 14 14 14 14 14 13 12 11 8 9 8 6 8 7 6 6 6 6 6 5 6 5 4 4 3 1 -0 -3
18 19 19 19 19 19 19 19 18 16 16 16 15 15 14 14 14 14 13 12 11 9 9 10 9 8 7 8 8 8 7 6 7 6 6 7 6 4 3 1 -2 -3 -4
18 17 17 18 18 18 18 17 16 16 15 15 14 14 14 14 13 12 11 9 9 9 9 7 7 7 8 8 7 7 7 7 7 6 6 6 4 1 0 -2 -3 -4 -4
15 15 16 18 17 17 16 15 15 15 14 14 14 14 14 12 12 10 9 8 7 7 8 8 8 8 7 6 6 6 6 4 6 8 4 2 2 1 -2 -3 -4 -5 -5
12 12 14 14 13 15 15 14 14 13 14 13 13 14 13 12 10 8 8 6 7 8 8 7 5 6 6 5 5 5 4 4 3 3 2 2 0 -3 -3 -4 -5 -5 -6
12 12 12 11 11 11 11 12 10 8 8 11 11 12 10 9 9 8 8 7 8 6 6 6 6 5 4 4 4 3 3 3 3 3 -1 -4 -3 -4 -4 -5 -5 -6 -6
15 15 13 12 12 13 12 11 10 9 8 5 5 6 6 8 7 6 6 7 7 6 6 6 4 4 4 3 3 2 3 3 2 -3 -3 -4 -4 -5 -5 -5 -5 -6 -6
13 12 14 13 13 12 11 11 11 11 9 8 7 7 4 4 5 5 5 6 5 5 5 4 4 4 4 2 0 1 -2 -2 -4 -4 -4 -4 -4 -5 -5 -5 -5 -5 -6
11 11 10 10 10 9 9 9 8 8 9 9 8 7 5 6 5 4 5 6 5 5 5 4 4 4 3 1 1 -0 -1 -2 -5 -5 -5 -5 -5 -5 -4 -5 -4 -5 -6
10 9 10 10 8 8 9 8 8 8 8 8 8 8 7 6 7 7 7 6 5 6 5 4 4 4 2 0 -1 -1 -6 -6 -6 -5 -5 -5 -8 -4 -4 -4 -5 -6 -6
6 8 8 7 9 10 8 7 7 7 7 7 7 7 7 7 7 7 6 5 5 5 4 4 4 4 3 1 -1 -1 -7 -8 -7 -7 -7 -12 -14 -5 -4 -4 -5 -6 -7
9 9 9 9 9 9 9 8 7 8 7 6 6 6 6 7 7 7 6 5 4 4 3 3 4 3 3 1 1 -2 -6 -9 -10 -10 -10 -13 -21 -4 -4 -4 -5 -7 -7
9 9 8 8 8 8 7 7 6 7 8 7 8 7 7 7 5 4 5 3 3 3 3 3 2 2 3 1 1 1 -5 -9 -12 -17 -21 -22 -14 -4 -4 -5 -6 -5 -6

GFSGL_850_dewp_024.txt.gz
Dewpoint
12 13 14 14 15 12 11 13 15 15 16 15 15 12 13 13 13 11 2 -3 -3 -1 5 8 5 6 8 10 9 9 9 9 9 9 9 9 9 8 8 8 6 7 7
12 13 13 14 15 13 10 11 14 15 15 15 15 13 13 14 13 13 11 0 -2 -2 5 7 8 7 7 8 8 9 10 9 9 9 8 8 9 9 9 7 7 8 8
13 13 13 14 14 14 10 10 11 13 14 16 15 13 13 13 13 13 12 10 2 -1 4 9 8 9 10 10 9 7 9 10 9 10 10 9 8 8 8 9 9 8 9
12 13 13 13 13 13 10 8 7 10 13 14 15 15 14 13 13 12 12 11 10 5 1 8 8 10 10 9 9 8 10 10 9 10 9 10 9 9 9 9 9 8 7
12 12 13 13 13 12 11 9 8 8 10 12 15 15 15 15 14 14 13 12 12 11 5 4 6 8 10 11 9 10 10 7 7 11 8 10 8 9 9 9 6 8 6
12 11 11 12 13 13 12 11 8 7 8 9 11 11 14 14 14 13 14 13 13 13 10 4 6 8 8 11 10 10 7 6 10 11 9 9 8 9 9 6 9 8 7
11 11 11 11 12 12 11 12 10 8 7 9 11 12 14 15 14 15 16 15 15 14 13 10 6 8 8 10 11 11 8 8 9 11 7 9 9 9 6 8 7 8 8
11 11 11 11 11 10 10 10 11 11 11 11 12 12 13 13 14 15 17 16 16 16 15 13 9 8 8 9 10 11 8 8 9 7 9 9 9 8 8 8 9 8 8
13 11 11 11 11 11 9 7 11 14 13 13 13 14 15 15 16 17 18 17 17 16 15 13 11 8 7 8 10 10 7 9 9 9 10 9 9 7 7 8 7 7 7
10 9 9 11 11 11 10 11 12 13 14 15 15 15 16 17 17 18 18 18 17 15 15 14 11 9 9 10 11 9 8 8 8 9 9 7 7 7 7 7 6 7 7
7 9 13 11 11 11 12 13 13 13 15 16 16 16 17 17 17 17 18 17 16 15 14 13 11 10 10 10 10 9 9 10 8 8 8 7 5 4 5 6 6 4 2
8 12 13 13 12 13 13 14 14 15 16 16 16 17 17 18 18 18 17 15 15 14 12 11 10 11 11 10 8 8 9 9 9 8 6 5 4 4 6 6 5 4 3
11 12 13 13 14 13 13 15 16 16 16 17 16 9 17 17 16 15 15 14 13 12 13 13 12 11 9 9 9 8 8 9 8 5 5 5 5 5 5 5 4 4 1
11 12 13 13 13 14 15 15 15 16 17 17 15 17 17 16 15 15 14 13 13 13 13 12 11 10 8 10 8 7 8 7 6 5 6 6 6 6 6 5 4 1 -3
13 14 15 15 17 17 18 18 17 17 16 16 17 16 15 15 15 14 14 13 13 13 13 13 11 9 9 8 7 7 7 7 7 7 7 5 6 6 6 3 0 -3 -4
15 15 16 18 19 20 19 19 17 15 16 16 15 15 15 14 14 14 14 13 12 11 10 9 9 8 8 8 8 6 7 8 7 6 7 6 6 4 2 1 -2 -3 -4
17 18 19 18 17 18 16 16 16 16 15 15 15 13 13 14 13 11 11 9 9 9 9 9 8 7 7 8 7 6 5 5 6 6 8 8 5 3 1 -1 -3 -4 -5
16 16 15 16 12 7 7 7 11 14 15 14 13 13 14 13 12 11 10 8 7 7 7 7 8 9 8 7 6 5 5 5 5 4 5 6 3 1 -3 -3 -4 -5 -5
14 14 12 13 14 14 14 12 12 15 14 13 13 13 13 11 9 10 8 8 6 7 7 6 6 5 6 5 4 4 3 3 3 3 3 -0 -3 -4 -4 -5 -5 -5 -5
12 13 13 13 14 15 12 12 13 13 13 11 11 11 11 9 8 9 8 8 7 7 6 6 6 5 4 4 3 3 2 2 3 2 -2 -3 -4 -4 -5 -5 -5 -5 -5
12 12 10 9 10 9 9 10 8 7 3 5 6 5 3 3 5 6 6 6 7 6 6 5 5 4 4 4 4 2 -2 -4 -5 -4 -5 -4 -4 -4 -5 -5 -5 -4 -5
12 14 12 11 10 9 9 10 10 9 8 7 7 6 4 4 5 5 5 5 6 5 5 5 5 4 4 4 4 2 -0 -2 -3 -3 -5 -5 -5 -5 -6 -6 -5 -4 -6
11 11 12 12 11 11 12 11 10 10 9 8 8 7 5 5 5 5 4 5 5 5 5 5 4 4 4 4 3 0 -1 -2 -5 -6 -5 -4 -5 -7 -7 -5 -4 -5 -6
9 10 10 10 9 10 10 9 9 9 9 9 8 8 7 6 6 6 6 7 7 6 6 5 4 4 4 3 2 0 0 -1 -8 -7 -7 -7 -9 -18 -7 -5 -5 -5 -6
7 7 6 7 6 7 8 8 8 8 8 7 7 7 7 7 7 6 6 6 7 7 5 4 3 3 3 3 1 1 -0 -2 -7 -10 -10 -11 -13 -19 -13 -5 -5 -6 -6
6 6 8 9 9 9 9 9 9 8 7 7 7 6 6 7 7 7 6 6 6 6 4 3 3 3 2 1 1 1 -1 -3 -8 -11 -16 -19 -22 -21 -8 -6 -6 -6 -6

GFSGL_850_dewp_030.txt.gz
Dewpoint
10 10 11 12 12 12 12 13 14 13 12 11 14 12 13 14 15 13 9 9 4 0 2 -3 -1 -1 1 4 10 10 10 9 9 9 9 9 9 9 9 9 9 9 9
9 10 10 11 11 12 12 12 13 14 11 12 13 12 13 14 14 10 6 6 8 3 -1 -0 -2 4 5 5 5 9 10 10 10 10 10 9 9 9 9 8 9 9 9
9 9 10 11 11 11 11 12 13 14 13 11 12 11 13 14 14 12 11 12 12 12 10 3 -0 2 7 7 6 9 10 10 9 8 10 10 9 10 9 8 8 8 8
9 10 10 9 10 10 11 11 12 13 14 10 11 10 12 13 13 13 13 12 13 13 13 12 7 3 3 8 8 8 9 10 10 10 10 11 9 8 9 9 8 8 7
9 10 9 9 10 10 10 11 11 12 13 13 9 11 10 12 12 13 14 14 13 13 13 13 13 10 6 6 9 9 10 11 10 10 11 11 9 6 7 10 9 8 8
9 8 10 11 10 9 10 11 11 11 13 14 11 8 10 10 10 11 13 15 14 14 14 14 14 13 12 8 8 9 9 10 11 10 10 11 7 8 10 8 8 9 9
8 8 9 10 10 9 9 10 11 11 12 13 13 11 9 9 10 11 13 14 15 15 15 15 15 14 14 13 10 9 10 9 10 11 11 10 8 8 9 9 9 9 8
7 9 10 10 10 10 10 10 10 11 11 12 13 13 12 10 11 11 11 13 14 15 15 15 16 15 14 14 13 10 10 8 10 11 11 10 9 9 10 10 9 9 7
10 11 9 9 10 10 10 9 10 11 11 11 11 13 13 12 10 10 11 13 14 15 15 17 16 16 15 14 14 12 8 9 9 9 10 8 9 9 9 8 7 8 8
8 7 8 9 9 10 9 10 10 11 11 12 12 12 11 12 12 12 11 12 14 14 15 17 17 16 15 15 14 13 10 8 9 10 8 9 9 8 8 6 4 4 5
6 9 10 11 10 9 11 12 11 13 12 13 13 13 13 12 12 12 12 13 14 15 16 17 18 16 13 13 13 13 10 9 10 11 9 9 9 9 6 3 3 4 5
11 11 12 11 10 11 12 13 16 16 16 16 17 16 14 13 13 12 12 13 15 16 17 17 16 14 13 13 13 11 10 11 11 10 8 9 8 7 4 4 4 5 5
12 12 12 13 14 15 14 16 14 16 16 17 16 17 16 17 12 14 15 17 17 17 17 17 15 14 13 13 13 11 12 11 11 8 9 9 8 5 4 5 5 5 5
11 12 13 14 15 16 17 16 17 14 6 12 16 16 16 15 13 16 17 17 16 17 17 15 14 13 11 11 10 10 11 10 9 8 8 9 6 5 5 5 5 5 5
12 12 13 13 14 15 16 17 17 17 17 18 18 18 18 18 16 15 16 17 15 15 14 14 12 11 12 12 12 10 9 9 8 8 8 7 6 6 6 5 5 5 2
6 6 7 12 14 15 16 17 18 18 18 18 18 18 17 17 15 13 11 10 12 15 14 12 12 11 12 10 8 9 8 7 7 6 6 6 7 7 6 6 6 2 1
7 8 11 12 14 14 15 17 18 18 18 18 18 17 15 11 11 11 11 9 12 14 13 12 11 12 10 9 8 8 8 7 6 6 6 6 7 6 7 7 3 0 -4
9 9 10 13 17 16 16 17 17 17 16 13 11 11 12 11 10 10 10 11 14 14 13 13 12 12 10 9 8 8 8 6 5 5 4 4 4 5 6 4 -1 -4 -5
8 8 11 13 16 16 16 16 15 14 13 12 12 11 9 9 10 11 9 14 14 13 14 13 11 9 9 7 7 7 6 5 5 4 3 3 3 4 3 -2 -5 -6 -7
12 9 10 13 14 14 13 13 13 13 11 10 10 12 12 11 12 12 14 14 13 12 10 9 8 8 7 7 7 5 5 4 4 4 2 1 2 2 -2 -4 -5 -7 -7
11 11 11 11 11 11 9 9 10 10 11 10 10 11 9 13 14 13 13 11 9 7 5 5 5 7 8 6 5 5 4 4 2 -0 -3 -4 -3 -5 -4 -5 -6 -8 -8
9 11 12 12 12 11 10 10 10 10 10 11 14 14 13 13 13 11 10 8 6 4 4 6 7 6 5 5 4 4 4 3 2 -1 -4 -5 -6 -5 -4 -5 -6 -8 -7
10 9 10 12 13 13 13 11 11 13 14 13 13 12 11 10 10 9 8 8 5 4 5 6 6 6 5 4 4 4 3 -1 -1 -2 -3 -5 -5 -5 -5 -5 -7 -9 -7
11 10 11 10 10 10 11 12 11 11 10 8 9 8 8 8 7 8 7 7 5 4 5 5 5 4 4 4 3 3 2 -2 -1 -1 -5 -7 -5 -5 -6 -9 -16 -11 -8
8 8 10 10 10 10 10 10 7 8 7 8 7 6 7 7 7 8 8 6 5 4 4 4 5 4 3 3 3 2 -1 -4 -5 -5 -8 -8 -7 -8 -10 -12 -14 -17 -9
8 8 8 8 8 8 9 10 10 10 10 10 10 9 10 9 10 9 8 6 5 5 5 5 5 4 3 3 2 0 0 0 -1 -5 -9 -10 -9 -10 -13 -13 -16 -14 -9

GFSGL_850_dewp_033.txt.gz
Dewpoint
7 8 9 10 11 12 12 12 12 13 14 15 14 12 14 12 12 14 15 13 8 6 2 1 -1 -2 1 3 4 6 9 10 10 10 9 9 9 9 9 8 8 9 9
8 8 8 8 9 10 11 11 12 12 13 14 13 13 11 13 12 13 14 13 7 4 1 -1 -1 -2 0 2 3 3 6 9 11 11 11 9 9 9 9 9 9 9 9
10 9 9 9 9 10 10 11 11 12 12 13 14 12 11 13 11 13 14 11 5 4 7 3 -1 -0 -1 3 6 6 4 7 9 11 11 9 9 10 10 9 9 9 8
10 9 9 9 9 9 9 10 11 11 12 13 14 12 11 11 10 12 13 10 9 8 11 12 11 7 2 1 5 7 7 8 9 10 11 12 10 11 10 8 10 8 10
9 9 8 8 9 9 9 10 10 11 11 12 13 14 10 11 10 10 12 12 12 11 12 13 13 13 11 6 4 7 9 9 10 11 12 12 12 12 11 9 10 10 9
8 7 7 9 9 9 9 9 10 10 11 11 12 13 13 8 8 8 10 12 12 13 12 12 13 13 13 12 9 7 8 10 10 12 12 12 12 11 10 11 10 9 10
7 8 8 8 9 9 10 9 9 10 10 11 11 12 13 11 6 7 7 11 13 13 14 14 13 14 14 14 13 12 9 10 10 9 11 11 11 10 10 8 9 10 11
8 8 9 9 9 10 10 9 9 10 9 10 11 11 12 12 8 5 8 11 12 13 14 15 15 15 15 15 15 13 12 9 11 9 10 10 11 10 9 9 9 9 8
8 8 8 7 8 10 11 9 9 9 10 10 11 11 11 11 11 11 9 10 12 14 14 14 15 15 15 15 15 14 13 12 11 9 10 11 10 8 9 9 8 10 9
6 6 7 9 10 10 9 11 11 11 10 10 10 10 11 11 9 10 12 12 11 12 13 14 14 15 15 16 15 15 14 13 11 9 10 10 8 8 9 8 10 9 7
8 9 10 12 12 12 14 15 15 15 16 12 11 10 10 11 11 10 11 14 14 12 12 12 12 15 16 16 15 15 14 14 10 10 10 10 9 8 9 9 6 3 7
7 7 8 9 11 14 14 15 15 16 17 16 14 14 14 12 11 12 12 13 14 15 14 13 12 14 17 17 15 15 15 14 11 11 10 10 9 8 8 7 4 4 4
10 10 11 12 12 14 15 15 16 12 16 16 17 14 12 11 10 11 12 13 15 16 16 15 14 15 17 16 14 14 13 12 11 11 10 11 8 9 8 5 4 4 4
10 11 12 13 13 15 17 15 16 17 17 17 17 16 14 15 15 15 16 16 18 17 17 17 16 17 15 15 14 14 12 11 11 11 12 9 8 8 6 5 5 4 4
9 10 11 11 12 13 15 16 11 10 17 17 15 16 16 17 16 16 17 18 17 15 15 14 15 15 13 14 14 13 12 12 11 11 10 8 8 8 5 5 6 5 5
5 5 5 7 9 13 15 13 16 16 17 17 17 17 16 15 16 17 17 18 16 13 11 11 10 12 14 14 11 11 11 11 10 9 8 8 8 6 6 6 6 6 5
7 7 7 7 9 11 13 14 15 16 17 18 17 17 18 18 18 18 16 14 10 11 12 9 10 13 13 12 12 12 10 10 9 7 7 7 7 7 7 7 6 6 4
8 8 7 8 10 16 16 15 15 16 17 18 18 18 18 18 15 12 12 12 11 12 10 9 9 13 12 12 11 9 9 8 7 7 6 6 5 5 6 6 5 4 1
9 7 9 10 11 14 16 16 16 16 17 16 17 16 15 12 11 11 11 10 11 11 11 9 12 13 12 11 10 9 9 8 7 6 5 4 4 4 5 4 2 -0 -4
9 9 11 14 14 15 14 14 14 13 13 12 12 11 12 12 11 11 12 11 10 11 10 13 13 12 11 12 10 8 8 7 6 5 4 4 3 3 2 1 -1 -2 -3
11 11 11 13 13 13 13 11 12 12 11 11 10 9 12 12 12 11 11 11 11 13 14 13 13 13 11 10 8 7 7 6 5 4 4 2 -0 0 -1 -1 -3 -3 -5
11 12 11 11 10 10 9 10 10 11 12 12 12 12 12 12 12 13 13 14 13 13 13 12 10 9 8 7 7 7 6 4 4 4 2 -0 -4 -5 -1 -2 -3 -4 -4
10 10 11 12 12 12 11 11 11 11 12 12 12 12 12 13 13 13 13 12 10 9 7 5 5 6 7 6 6 5 4 4 2 2 1 -2 -5 -3 -2 -3 -3 -4 -5
11 11 9 9 9 11 13 13 13 13 13 13 13 12 13 13 13 12 10 8 5 4 5 5 6 6 6 5 4 4 2 2 0 -2 -2 -3 -2 -4 -2 -3 -3 -5 -6
8 10 10 11 11 10 9 9 10 10 11 11 11 11 10 11 11 10 8 7 5 4 4 5 5 5 5 4 3 3 2 -0 -3 -3 -3 -4 -6 -5 -3 -4 -5 -6 -6
9 9 8 8 8 9 10 9 7 8 8 8 9 10 10 10 11 10 9 8 7 5 4 4 4 4 4 3 3 3 1 -2 -3 -6 -8 -9 -9 -4 -5 -6 -6 -7 -6